Regional Weather Roundup
Issued by NWS Kansas City/Pleasant Hill, MO

Home | Current Version | Previous Version | Text Only | Print | Product List | Glossary On
Versions: 1 2 3 4 5 6 7 8 9 10 11 12 13 14 15 16 17 18 19 20 21 22 23 24 25 26 27 28 29 30 31 32 33 34 35 36 37 38 39 40 41 42 43 44 45 46 47 48 49 50
000
ASUS43 KEAX 230911
RWREAX

WEATHER ROUNDUP FOR EASTERN KANSAS AND NORTHWEST MISSOURI
NATIONAL WEATHER SERVICE KANSAS CITY/PLEASANT HILL MO
300 AM CST SUN NOV 23 2014

KSZ040-057-103>105-MOZ028-029-037-043-231000-
...KANSAS CITY METROPOLITAN AREA...

CITY           SKY/WX    TMP DP  RH WIND       PRES   REMARKS
K.C. INTL      CLOUDY    54  51  90 S12       29.61F
K.C. DOWNTOWN  LGT RAIN  55  51  86 S8G17     29.62F
LEES SUMMIT    NOT AVBL
OLATHE - IXD   CLOUDY    52  50  93 S10       29.61F
OLATHE - OJC   CLOUDY    52  51  97 S8        29.60F
LAWRENCE       CLOUDY    54  50  86 SE8       29.60F

$$

MOZ001>008-011>017-020>025-030>033-038>040-044>046-053-054-231000-
...NORTHERN AND CENTRAL MISSOURI...

CITY           SKY/WX    TMP DP  RH WIND       PRES   REMARKS
ST. JOSEPH     CLOUDY    54  51  90 S13       29.59F
MOSBY          CLOUDY    54  50  87 SE3       29.63F
WARRENSBURG    DRIZZLE   52  50  93 SE7       29.64F
WHITEMAN AFB   DRIZZLE   54  50  87 S12G18    29.63F
CLINTON        CLOUDY    55  52  88 S14G20    29.65F
SEDALIA        CLOUDY    56  50  80 S14       29.66F
WARSAW         NOT AVBL
MARSHALL       CLOUDY    54  52  94 SE6       29.67F
CHILLICOTHE      N/A     54  50  86 S7        29.66F
MOBERLY        CLOUDY    54  46  76 SE10      29.69F
KIRKSVILLE     CLOUDY    54  50  86 S12       29.68F

$$

MOZ041-047>049-056>058-063>065-088>090-097-231000-
...EASTERN AND SOUTHERN MISSOURI...

CITY           SKY/WX    TMP DP  RH WIND       PRES   REMARKS
ST. LOUIS INTL CLOUDY    56  44  64 S12G18    29.79F
SPIRIT OF STL  CLOUDY    54  45  71 S6        29.77F
COLUMBIA       CLOUDY    54  50  86 S14       29.70F
JEFFERSON CITY CLOUDY    56  50  80 SE8       29.72F
MEXICO         CLOUDY   N/A N/A N/A S10       29.71F
ROLLA          MOCLDY    52  46  80 S13G22    29.72F
LEBANON        MOCLDY    54  50  87 S12G17    29.69F
OSAGE BEACH    MOCLDY    54  48  82 S7        29.69F
SPRINGFIELD    CLOUDY    55  52  89 SE15      29.65F
BRANSON        CLOUDY    55  52  88 SE7       29.69S
NEVADA         CLOUDY    54  50  87 SE8       29.63F
JOPLIN         CLOUDY    58  53  84 SE9       29.62F
WEST PLAINS    CLOUDY    52  47  83 SE8       29.74F

$$

IAZ060-094-KSZ022-034>040-054-083-096-NEZ052-066-093-231000-
...KANSAS...SOUTHEAST NEBRASKA AND IOWA...

CITY           SKY/WX    TMP DP  RH WIND       PRES   REMARKS
TOPEKA         CLOUDY    55  54  96 SE6       29.58F FOG
MANHATTAN      CLOUDY    54  54 100 S6        29.53F
EMPORIA        CLOUDY    54  53  97 S15       29.55F
CHANUTE        CLOUDY    55  53  93 SE10      29.58F
WICHITA        CLOUDY    55  52  89 S13       29.51F
OMAHA          CLOUDY    53  52  96 S13       29.51F
LINCOLN        CLOUDY    55  50  83 S14       29.50S
FALLS CITY     CLOUDY    53  52  96 SE8       29.55F FOG
LAMONI         CLOUDY    51  50  96 S10       29.61F FOG
DES MOINES     CLOUDY    54  50  86 S12       29.58F

$$



USA.gov is the U.S. government's official web portal to all federal, state and local government web resources and services.